DL7GAI-7 Weather Reports


Display with metric or nautical units.
time (UTC)temp
F
wind
direction
speed
MPH
gust
MPH
rain 1hr
in
rain 24hr
in
rain mn
in
humidity
%
barometer
mb
20260831045827 62 225 1.0 8.0 0.00 1.07 1.07 94 1017.1
20260831044442 62 225 1.0 8.0 0.00 1.07 1.07 94 1017.1
20260831043117 63 225 4.0 8.0 0.00 1.07 1.07 92 1017.1
20260831041800 63 225 4.0 8.0 0.00 1.07 1.07 92 1017.1
20260831040452 64 225 5.0 11.0 0.00 1.07 1.07 89 1016.9
20260831035041 64 225 5.0 11.0 0.00 1.07 1.07 89 1016.9
20260831033717 64 225 5.0 11.0 0.00 1.07 1.07 89 1016.9
20260831032332 32 0 0.0 0.0 0.00 1.07 1.07 1
20260831031047 32 0 0.0 0.0 0.00 1.07 1.07 1
20260831025744 32 0 0.0 0.0 0.00 1.07 1.07 1
20260831024317 32 0 0.0 0.0 0.00 1.07 1.07 1
20260831022834 32 0 0.0 0.0 0.00 1.07 1.07 1
20260831021547 32 0 0.0 0.0 0.00 1.07 1.07 1
20260831020117 32 0 0.0 0.0 0.00 1.07 1.07 1
20260831013357 32 0 0.0 0.0 0.00 1.07 1.07 1
20260831012012 32 0 0.0 0.0 0.00 1.07 1.07 1
20260831010622 32 0 0.0 0.0 0.00 1.07 1.07 1
20260831005246 32 0 0.0 0.0 0.00 1.07 1.07 1
20260831003846 32 0 0.0 0.0 0.00 1.07 1.07 1
20260831002502 32 0 0.0 0.0 0.00 1.07 1.07 1
20260831001152 32 0 0.0 0.0 0.00 1.07 1.07 1
20260830235816 32 0 0.0 0.0 0.00 1.07 1.07 1
20260830234412 32 0 0.0 0.0 0.00 1.07 1.07 1
20260830233052 63 0 2.0 5.0 0.00 1.07 1.07 90 1014.2
20260830231637 63 0 2.0 5.0 0.00 1.07 1.07 90 1014.2
20260830230342 64 45 2.0 4.0 0.00 1.07 1.07 86 1014.3
20260830225117 64 45 2.0 4.0 0.00 1.07 1.07 86 1014.3
20260830223852 64 45 2.0 4.0 0.00 1.07 1.07 86 1014.3
20260830222622 64 45 3.0 4.0 0.00 1.07 1.07 85 1014.3
20260830221352 64 45 3.0 4.0 0.00 1.07 1.07 85 1014.3
20260830220017 65 45 3.0 5.0 0.00 1.07 1.07 83 1014.4
20260830214706 65 45 3.0 5.0 0.00 1.07 1.07 83 1014.4
20260830213342 66 45 3.0 4.0 0.00 1.07 1.07 81 1014.4
20260830211952 66 45 3.0 4.0 0.00 1.07 1.07 81 1014.4
20260830210626 66 45 3.0 4.0 0.00 1.07 1.07 81 1014.4
20260830205240 67 45 3.0 4.0 0.00 1.07 1.07 81 1014.5
20260830203805 67 45 3.0 4.0 0.00 1.07 1.07 81 1014.5
20260830202517 68 45 2.0 4.0 0.00 1.07 1.07 77 1014.2
20260830201146 68 45 2.0 4.0 0.00 1.07 1.07 77 1014.2
20260830195922 70 45 4.0 6.0 0.00 1.07 1.07 74 1014.1
20260830194552 70 45 4.0 6.0 0.00 1.07 1.07 74 1014.1
20260830193126 76 59 0.0 0.0 1.07 1.07 1.07 17 1013.3
20260830191706 76 59 0.0 0.0 1.07 1.07 1.07 17 1013.3
20260830190241 76 90 3.0 7.0 0.00 0.00 0.00 59 1013.3
20260830184942 76 90 3.0 7.0 0.00 0.00 0.00 59 1013.3
20260830183622 76 90 3.0 7.0 0.00 0.00 0.00 59 1013.3
20260830182244 79 315 3.0 6.0 0.00 0.00 0.00 45 1012.9
20260830181012 79 315 3.0 6.0 0.00 0.00 0.00 45 1012.9
20260830175617 80 315 6.0 11.0 0.00 0.00 0.00 43 1012.9
20260830174342 80 315 6.0 11.0 0.00 0.00 0.00 43 1012.9
20260830173026 80 315 7.0 11.0 0.00 0.00 0.00 42 1012.9
20260830171737 80 315 7.0 11.0 0.00 0.00 0.00 42 1012.9
20260830170513 80 315 7.0 14.0 0.00 0.00 0.00 46 1012.9
20260830165046 80 315 7.0 14.0 0.00 0.00 0.00 46 1012.9
20260830163637 80 315 7.0 14.0 0.00 0.00 0.00 46 1012.9
20260830162242 79 270 6.0 14.0 0.00 0.00 0.00 47 1013.3
20260830160957 79 270 6.0 14.0 0.00 0.00 0.00 47 1013.3
20260830155727 80 270 6.0 14.0 0.00 0.00 0.00 50 1013.3
20260830154346 80 270 6.0 14.0 0.00 0.00 0.00 50 1013.3
20260830153052 79 315 6.0 14.0 0.00 0.00 0.00 47 1013.5
20260830151742 79 315 6.0 14.0 0.00 0.00 0.00 47 1013.5
20260830150407 80 270 7.0 16.0 0.00 0.00 0.00 49 1013.6
20260830145002 80 270 7.0 16.0 0.00 0.00 0.00 49 1013.6
20260830143557 79 270 7.0 16.0 0.00 0.00 0.00 48 1013.9
20260830142247 79 270 7.0 16.0 0.00 0.00 0.00 48 1013.9
20260830140802 79 270 7.0 16.0 0.00 0.00 0.00 48 1013.9
20260830135442 79 270 10.0 17.0 0.00 0.00 0.00 49 1014.1
20260830134217 79 270 10.0 17.0 0.00 0.00 0.00 49 1014.1
20260830132917 78 270 9.0 17.0 0.00 0.00 0.00 48 1014.3
20260830131506 78 270 9.0 17.0 0.00 0.00 0.00 48 1014.3
20260830130201 77 270 11.0 18.0 0.00 0.00 0.00 51 1014.6
20260830124817 77 270 11.0 18.0 0.00 0.00 0.00 51 1014.6
20260830123448 76 270 9.0 16.0 0.00 0.00 0.00 53 1015.0
20260830122048 76 270 9.0 16.0 0.00 0.00 0.00 53 1015.0
20260830120814 76 270 9.0 16.0 0.00 0.00 0.00 53 1015.0
20260830115538 77 270 6.0 13.0 0.00 0.00 0.00 52 1015.0
20260830114117 77 270 6.0 13.0 0.00 0.00 0.00 52 1015.0
20260830112802 76 315 7.0 13.0 0.00 0.00 0.00 56 1015.4
20260830111402 76 315 7.0 13.0 0.00 0.00 0.00 56 1015.4
20260830110053 74 270 6.0 12.0 0.00 0.00 0.00 55 1015.8